Trustee Sales

Below is a list of all active and inactive Trustee’s Sales we are currently servicing. To find more information about individual sales, click the ‘Expand’ button. For your convenience, you may print the information. Our lists are updated every two hours to keep the most current information available to you. If you are in need of information not listed below, please call 623-581-3262.

Monday, September 29th, 2014 to Friday, October 3rd, 2014

Sale Date File Number Property Address Zipcode Status
10/02/2014 14-34035 3550 N. San Carlos Drive, Eloy 85131 Closed Expand
10/02/2014 14-26189 Vacant Land, Pinal County Closed Expand

Monday, October 13th, 2014 to Friday, October 17th, 2014

Sale Date File Number Property Address Zipcode Status
10/14/2014 14-31101 430 S. 93rd Way, Mesa 85208 Closed Expand
10/16/2014 14-34037 1954 West Washington Street, Phoenix 85009 Closed Expand

Monday, October 20th, 2014 to Friday, October 24th, 2014

Sale Date File Number Property Address Zipcode Status
10/21/2014 14-18153 7689 E. Paradise Lane, Scottsdale 85260 Closed Expand
10/24/2014 14-7030 3055 N. Flowing Wells Road, Tucson 85705 Closed Expand

Monday, October 27th, 2014 to Friday, October 31st, 2014

Sale Date File Number Property Address Zipcode Status
10/31/2014 14-17201 4794 Hopi Street, Phoenix 85044 Closed Expand
10/31/2014 211020- Dubaj 17202 W. Limerock Dr, Surprise 85373 Closed Expand

Monday, November 3rd, 2014 to Friday, November 7th, 2014

Sale Date File Number Property Address Zipcode Status
11/04/2014 13-31070 715 Clark Street, Jerome 86331 Active Expand
11/04/2014 14-32021 1316 East Donner Drive, Tempe 85282 Active Expand
11/07/2014 09-1278 12180 E. Turquoise, Dewey 86327 Active Expand

Monday, November 10th, 2014 to Friday, November 14th, 2014

Sale Date File Number Property Address Zipcode Status
11/12/2014 14-34040 7113 W. Cochise Drive, Peoria 85345 Active Expand
11/13/2014 14-7029 8040 North 43rd Avenue, Glendale 85302 Active Expand
11/14/2014 13-7027 4851 E. Broadway Blvd, Tucson 85711 Active Expand
11/14/2014 213008 Kaur 9321 W. Elm Street, Phoenix 85037 Active Expand

Monday, November 17th, 2014 to Friday, November 21st, 2014

Sale Date File Number Property Address Zipcode Status
11/18/2014 14-31103 8235 W. Piccadilly, Phoenix 85033 Closed Expand
11/19/2014 11-1326 2581 North Eagle View Loop, Show Low 85901 Active Expand
11/19/2014 11-1327 Multiple Parcels, Show Low Active Expand
11/19/2014 11-1329 2681 Eagle View Circle, Show Low 85901 Active Expand
11/19/2014 11-1328 4541, 4551, 4561, 4571, Show Low 85901 Active Expand
11/20/2014 14-7028 201 W. Fry Bouldevard, Sierra Vist 85635 Active Expand
11/21/2014 10-1317 726 W. Vogel Avenue, Phoenix 85021 Active Expand

Monday, November 24th, 2014 to Friday, November 28th, 2014

Sale Date File Number Property Address Zipcode Status
11/26/2014 13-26150 27 E. 7th Street, Tempe 85281 Active Expand

Monday, December 1st, 2014 to Friday, December 5th, 2014

Sale Date File Number Property Address Zipcode Status
12/02/2014 13-31064 15814 N. 83rd Avenue, Peoria 85382 Active Expand
12/02/2014 14-34039 13221 N. 17th Place, Phoenix 85022 Active Expand
12/02/2014 14-18154 2801 West Garfield Street, Phoenix 85009-3900 Active Expand
12/02/2014 14-26194 4607 S. 16th Street, Phoenix 85040 Active Expand
12/03/2014 14-26196 3750 Diamond Bar Road, Meadview Closed Expand
12/05/2014 12-1042 2416 West Cordia Lane, Phoenix 85085 Active Expand

Monday, December 8th, 2014 to Friday, December 12th, 2014

Sale Date File Number Property Address Zipcode Status
12/10/2014 14-34043 1309 W. 16th Street, Tempe 85281 Active Expand
12/11/2014 14-26195 35375 S. Pinnacle Place, Black Canyon 85324 Active Expand
12/11/2014 13-12176 12505 W. Buckeye Road, Avondale 85323 Active Expand

Monday, December 15th, 2014 to Friday, December 19th, 2014

Sale Date File Number Property Address Zipcode Status
12/16/2014 14-26197 2504 N. 24th Street, Phoenix 85008 Active Expand
12/19/2014 09-12104 1513 W. Hatcher Road, Phoenix 85021 Active Expand
12/19/2014 13-12177 4495 S. Coach Drive, Tucson 85714 Active Expand

Monday, December 22nd, 2014 to Friday, December 26th, 2014

Sale Date File Number Property Address Zipcode Status
12/23/2014 14-12185 2301 E. Colter Street, Phoenix 85016 Active Expand

Monday, January 5th, 2015 to Friday, January 9th, 2015

Sale Date File Number Property Address Zipcode Status
1/06/2015 14-12186 14749 Eaat Pecos Road, Gilbert 85295 Active Expand
1/06/2015 13-31086 11174 W. Baden Street, Avondale 85323 Active Expand
1/06/2015 14-26200 9220 N. 11th Avenue, Phoenix 85021 Active Expand
1/06/2015 14-17204 124 N. 89th Place, Mesa 85207 Active Expand
1/06/2015 14-26199 Need Property address, Phoenix 85021 Active Expand
1/06/2015 14-34042 1906 E. Southern Avenue, Phoenix 85040 Active Expand
1/06/2015 14-30004 10310 E. Hummingbird Lane, Gold Canyon 85218 Active Expand
1/07/2015 13-34001 4756 Diamond M. Ranch Rd., Kingman 86401 Active Expand

Monday, January 26th, 2015 to Friday, January 30th, 2015

Sale Date File Number Property Address Zipcode Status
1/27/2015 14-31109 2660 N. 43rd Ave. 15A, Phoenix 85009 Active Expand
1/27/2015 14-34046 229 W. Vista Avenue, Phoenix 85021 Active Expand
1/28/2015 14-31106 53669 W. Clearview Road, Maricopa 85122 Active Expand

Monday, August 10th, 2015 to Friday, August 14th, 2015

Sale Date File Number Property Address Zipcode Status
8/14/2015 Dummy 449 Closed Expand